Regional Weather Roundup
Issued by NWS Grand Forks, ND

Home | Current Version | Previous Version | Text Only | Print | Product List | Glossary On
Versions: 1 2 3 4 5 6 7 8 9 10 11 12 13 14 15 16 17 18 19 20 21 22 23 24 25 26 27 28 29 30 31 32 33 34 35 36 37 38 39 40 41 42 43 44 45 46 47 48 49 50
000
ASUS43 KFGF 230231
RWRFGF
PRAIRIE TO PINES  WEATHER ROUNDUP
NATIONAL WEATHER SERVICE EASTERN NORTH DAKOTA/GRAND FORKS ND
900 PM CDT FRI MAY 22 2015

 **SATELLITE DATA USED TO AUGMENT SKY COVER AT AUTOMATED STATIONS**
 *****  WEATHER ACROSS EASTERN NORTH DAKOTA  *****

CITY           SKY/WX    TMP DP  RH WIND       PRES   REMARKS
GRAND FORKS    PTCLDY    63  44  50 S8        30.10S
GRAND FRKS AFB CLEAR     64  43  46 S7        30.11R
GRAND FRKS NWS   N/A     64 N/A N/A S6          N/A
DEVILS LAKE    CLEAR     64  34  32 S9        30.10S
FARGO          PTCLDY    69  40  34 SE6       30.12S
WAHPETON ARPT  PTCLDY    66  32  28 SE5       30.13S
$$

 ***** WEATHER ACROSS CENTRAL AND WESTERN NORTH DAKOTA  *****

CITY           SKY/WX    TMP DP  RH WIND       PRES   REMARKS
BISMARCK       CLOUDY    66  41  40 S9        30.08R
MINOT          PTCLDY    68  36  30 SE6       30.06S
JAMESTOWN      PTCLDY    61  43  51 SE7       30.10S
MINOT AFB      PTCLDY    71  37  29 S6        30.05S
GARRISON         N/A     65  40  39 S5        30.07S
WILLISTON      PTCLDY    71  31  22 SE12      30.03S
DICKINSON      MOCLDY    60  37  42 SE10      30.05R
HETTINGER      MOCLDY    59  35  40 SE14      30.07R
$$

 *****  OTHER AIRPORT OBSERVATIONS IN OUR AREA  *****

CITY           SKY/WX    TMP DP  RH WIND       PRES   REMARKS
WALHALLA       FAIR      68  36  30 SW6       30.09R
GRAFTON AIRPOR FAIR      63  48  59 S8        30.10S
VALLEY CITY AR FAIR      63  36  36 CALM      30.12S
CANDO          FAIR      59  39  47 SE9       30.10S
CAVALIER APRT  FAIR      68  45  42 SW5       30.09R
GWINNER        NOT AVBL
SHEYENNE NWR     N/A     66  42  41 SE3       29.95
ROLLA          FAIR      63  34  34 S8        30.11S
 ***** THE ABOVE OBSERVATIONS ARE NON NWS ARE NOT QUALITY
       CONTROLLED AND MAY MIS-REPORT RAIN FOR SNOW...
$$

  *****  WEATHER ACROSS NORTHERN MINNESOTA  *****

CITY           SKY/WX    TMP DP  RH WIND       PRES   REMARKS
FLAG ISLAND    NOT AVBL
WARROAD        PTCLDY    66  45  45 SW5       30.10R
ROSEAU         PTCLDY    66  46  48 SW8       30.10R
HALLOCK        PTCLDY    64  46  52 S8        30.09R
THF RVR FALLS  CLEAR     66  37  34 SW5       30.13R
BAUDETTE       CLEAR     68  39  34 W5        30.09S
WASKISH        CLEAR     64  41  42 CALM      30.13R
CROOKSTON      CLEAR     64  39  39 SW7       30.13R
STEPHEN NDAWN    N/A     66  45  45 S6          N/A
GREENBUSH NDAW   N/A     63  50  63 S5          N/A
$$
  *****  WEATHER ACROSS CENTRAL AND WEST MINNESOTA  *****

CITY           SKY/WX    TMP DP  RH WIND       PRES   REMARKS
FOSSTON        CLEAR     61  37  41 CALM      30.14S
BEMIDJI        CLEAR     64  37  37 CALM      30.14R
PARK RAPIDS    CLEAR     64  39  39 S7        30.15R
ELBOW LAKE     FAIR      65  40  40 E3        30.15S
WADENA         PTCLDY    61  43  51 CALM      30.16S
DETROIT LAKES  CLEAR     63  37  39 S3        30.17R
MOORHEAD       PTCLDY    68  39  34 SE3       30.14R
FERGUS FALLS   PTCLDY    66  36  32 SE6       30.15S
MORRIS MN      PTCLDY    63  39  42 E8        30.14S
STAPLES        PTCLDY    63  37  39 S3        30.17S
$$
  *****  WEATHER ELSEWHERE ACROSS MINNESOTA  *****

CITY           SKY/WX    TMP DP  RH WIND       PRES   REMARKS
DULUTH         CLEAR     62  36  37 S6        30.16R
INTRNTL FALLS  CLEAR     61  40  45 SW3       30.09S
ELY            CLEAR     59  36  41 SW5       30.13R
CLOQUET        CLEAR     61  34  36 CALM      30.17R
WHEATON        MOCLDY    59  43  55 E6        30.15S
BRAINERD       PTCLDY    62  39  42 S6        30.17R
HIBBING        CLEAR     58  35  42 SW3       30.14S
ALEXANDRIA     PTCLDY    65  33  30 E5        30.18R
SAINT CLOUD    PTCLDY    61  41  47 S3        30.18R
MINNEAPOLIS    MOCLDY    70  34  26 S3        30.18S
$$

  *****  WEATHER ACROSS SOUTH DAKOTA  *****

CITY           SKY/WX    TMP DP  RH WIND       PRES   REMARKS
SIOUX FALLS    CLOUDY    59  42  53 SW9       30.19R
BROOKINGS      CLOUDY    59  41  51 SW17G25   30.19R
WATERTOWN      CLOUDY    64  42  44 SW6       30.14R
HURON          CLOUDY    59  42  53 SW16G23   30.17R
SISSETON         N/A     63  38  39 SE7       30.12R
ABERDEEN       CLOUDY    67  41  38 SW13      30.11R
MITCHELL       MOCLDY    58  43  57 S7        30.18S
PIERRE         MOCLDY    56  42  59 S14       30.13R
MOBRIDGE       MOCLDY    64  40  41 S10       30.08R
RAPID CITY     CLOUDY    52  41  66 SE10      30.08R
$$

  *****  SOME WEATHER IN NEARBY STATES *****

CITY           SKY/WX    TMP DP  RH WIND       PRES   REMARKS
GLASGOW MT     PTCLDY    68  42  38 E9        29.96S
GREAT FALLS MT MOCLDY    62  47  57 E7        29.92S
CHEYENNE WY    CLOUDY    46  43  89 S7        30.04R
SCOTTSBLUFF NE CLOUDY    47  46  97 SE15      30.06R FOG
OMAHA NE       CLOUDY    63  46  54 SE7       30.18R
DES MOINES IA  CLOUDY    65  45  48 SW7       30.21R
DAVENPORT IA   CLOUDY    68  38  33 CALM      30.21R
CHICAGO IL     CLOUDY    53  28  38 E7        30.27R
EAU CLAIRE WI  MOCLDY    60  37  42 CALM      30.20R
LA CROSSE WI   CLOUDY    63  41  44 NE3       30.19S
$$

  *****  SOME NATIONAL WEATHER *****

CITY           SKY/WX    TMP DP  RH WIND       PRES   REMARKS
LA GUARDIA NY  PTCLDY    66  34  30 NW18G26   30.07R
RALEIGH NC     PTCLDY    59  48  67 CALM      30.25R
ATLANTA GA     PTCLDY    72  51  47 CALM      30.23R
NEW ORLEANS LA PTCLDY    76  68  76 S6        30.16R
OKLAHOMA CITY  DRIZZLE   55  54  96 SE8       30.14R
ALBUQUERQUE NM PTCLDY    71  33  24 S22G36    29.91R
SALT LAKE CITY CLOUDY    62  40  44 S5        29.87R
LOS ANGELES CA CLOUDY    61  55  82 SW12      30.04R
BOISE ID       CLOUDY    69  48  47 NE6       29.80S
SEATTLE WA     PTSUNNY   58  50  75 SW8       30.03S
$$

*** WEATHER ACROSS MANITOBA...SASKATCHEWAN AND ONTARIO ***
                ***ONTARIO***

CITY           SKY/WX    TMP DP  RH WIND       PRES   REMARKS
GERALDTON      PTCLDY    48  28  46 SW12G22   30.12R
THUNDER BAY    CLEAR     48  25  40 S5        30.15S
SIOUX LOOKOUT  PTCLDY    63  37  39 SW5       30.01F
TORONTO        CLEAR     45  23  42 N13G20    30.29
BIG TROUT LK   PTCLDY    50  32  50 S2        29.90F
PICKLE LAKE    MOCLDY    63  34  34 S12       29.93F
DRYDEN         LGT RAIN  64  41  42 W12       30.05R
KENORA         MOCLDY    70  37  30 W10       30.06R
$$
                *** MANITOBA***

CITY           SKY/WX    TMP DP  RH WIND       PRES   REMARKS
BRANDON        PTCLDY    72  37  28 SE6       30.07R
DAUPHIN        CLEAR     72  36  26 SW9       30.01S
ISLAND LAKE    PTCLDY    63  37  39 NW8       29.91R
PILOT MOUND      N/A     63  36  36 S10         N/A
THE PAS        CLOUDY    75  34  22 SW5       29.91F
THOMPSON       LGT RAIN  66  43  42 VRB2      29.90S
WINNIPEG       MOCLDY    68  43  40 W8        30.05S
LYNN LAKE      PTCLDY    64  41  42 NE13G23   29.97R
CHURCHILL      LGT SNOW  34  32  93 N15       30.09R FOG     WCI  24
GILLAM         LGT RAIN  41  37  87 NE16      30.00R
$$
                ***SASKATCHEWAN***

CITY           SKY/WX    TMP DP  RH WIND       PRES   REMARKS
ESTEVAN        PTCLDY    66  39  37 S7        30.06R
KINDERSLEY     PTCLDY    73  27  17 SE9       30.00S
LLOYDMINSTER   MOSUNNY   75  21  13 CALM      29.99
PRINCE ALBERT  PTCLDY    73  36  25 W6        29.97S
REGINA         PTCLDY    66  37  34 SE8       30.03S
YORKTON        CLEAR     70  36  28 S5        30.03S HAZE
N. BATTLEFORD  CLEAR     72  32  23 SW2       30.01R HAZE
LA RONGE       MOCLDY    77  32  19 N5        29.93S
SASKATOON      PTCLDY    75  32  20 SW3       30.02S
SWIFT CURRENT  CLEAR     68  28  22 SE10      30.01R
$$
NOTE: THESE ARE AUTOMATED STATIONS WITH LIMITED QUALITY CONTROL
      "FAIR" INDICATES FEW OR NO CLOUDS BELOW 12,000 FEET WITH NO
      SIGNIFICANT WEATHER AND/OR OBSTRUCTIONS TO VISIBILITY.
      SKY/WX - SKY CONDITION AND SIGNIFICANT WEATHER.
      TMP - AIR TEMPERATURE.    DP   - DEWPOINT TEMPERATURE.
      RH  - RELATIVE HUMIDITY.  PRES - PRESSURE.
      HX  - HEAT INDEX.         WCI  - WIND CHILL INDEX.
$



USA.gov is the U.S. government's official web portal to all federal, state and local government web resources and services.